Location: Chamerau
(49.1969°N, 12.7525°E)
Time: 06:27:54
(UTC+00:00)

SL-14 R/B - Pass Details

Date: 18 September 2020
Orbit: 519 x 554 km, 82.4° (Epoch: 27 October)

Event Time Altitude Azimuth Distance (km) Brightness Sun altitude
Rises 19:10:48 0° 357° (N) 2,673 7.2 -19.1°
Reaches altitude 10° 19:13:07 10° 8° (N) 1,783 6.1 -19.4°
Enters shadow 19:15:57 30° 50° (NE) 970 4.3 -19.8°
